Weather History for Rochester, NH

Change the Weather History Date:

Monday, February 4, 2013

  Actual Average (KSFM) Record (KSFM)
Temperature  
Mean Temperature 24 °F -  
Max Temperature 28 °F 31 °F 48 °F (2006)
Min Temperature 18 °F 11 °F -9 °F (2001)
Degree Days  
Heating Degree Days 42    
Moisture  
Dew Point 4 °F    
Average Humidity 45    
Maximum Humidity 72    
Minimum Humidity 30    
Precipitation  
Precipitation 0.00 in - - ()
Sea Level Pressure  
Sea Level Pressure 29.73 in    
Wind  
Wind Speed 7 mph (WNW)    
Max Wind Speed 15 mph    
Max Gust Speed 34 mph    
Visibility 10 miles    
Events      
Averages and records for this station are not official NWS values.
T = Trace of Precipitation, MM = Missing Value Source: NWS Daily Summary

Daily Weather History Graph

Daily Weather History Graph

Search for Another Location

Airport:

Trip Planner

Search our weather history database for the weather conditions in past years. The results will help you decide how hot, cold, wet, or windy it might be!

Date:

Astronomy

Feb. 04, 2013 Rise Set
Actual Time 6:55 AM EST 5:00 PM EST
Civil Twilight 6:25 AM EST 5:30 PM EST
Nautical Twilight 5:51 AM EST 6:04 PM EST
Astronomical Twilight 5:18 AM EST 6:37 PM EST
Moon 1:29 AM EST (2/4) 11:18 AM EST (2/4)
Length of Visible Light 11h 04m
Length of Day
10h 04m
Last Quarter, 37% of the Moon is Illuminated
Feb 4
Last Quarter
Feb 10
New
Feb 17
First Quarter
Feb 25
Full
Mar 4
Last Quarter

Hourly Weather History & Observations

Time (EST) Temp. Windchill Dew Point Humidity Pressure Visibility Wind Dir Wind Speed Gust Speed Precip Events Conditions
12:51 AM 24.1 °F 19.7 °F 12.9 °F 62% 29.68 in 10.0 mi Variable 3.5 mph - N/A   Overcast
1:51 AM 23.0 °F 18.4 °F 14.0 °F 68% 29.69 in 10.0 mi Variable 3.5 mph - N/A   Overcast
2:51 AM 21.9 °F - 14.0 °F 72% 29.68 in 10.0 mi Calm Calm - N/A   Scattered Clouds
3:51 AM 21.9 °F 15.7 °F 12.9 °F 68% 29.67 in 10.0 mi West 4.6 mph - N/A   Partly Cloudy
6:51 AM 19.9 °F 13.4 °F 10.9 °F 68% 29.70 in 10.0 mi WNW 4.6 mph - N/A   Scattered Clouds
7:51 AM 21.0 °F 12.4 °F 10.9 °F 65% 29.70 in 10.0 mi WNW 6.9 mph - N/A   Clear
8:51 AM 23.0 °F 12.4 °F 10.0 °F 58% 29.71 in 10.0 mi WNW 10.4 mph 23.0 mph N/A   Partly Cloudy
9:51 AM 25.0 °F 13.1 °F 7.0 °F 46% 29.72 in 10.0 mi WNW 13.8 mph 25.3 mph N/A   Scattered Clouds
10:51 AM 26.1 °F 14.5 °F 3.9 °F 39% 29.71 in 10.0 mi WNW 13.8 mph 21.9 mph N/A   Scattered Clouds
11:51 AM 26.1 °F 14.0 °F 1.9 °F 35% 29.70 in 10.0 mi WNW 15.0 mph 26.5 mph N/A   Mostly Cloudy
12:51 PM 27.0 °F 15.6 °F 1.9 °F 34% 29.69 in 10.0 mi WNW 13.8 mph 24.2 mph N/A   Mostly Cloudy
1:51 PM 28.0 °F 18.1 °F -0.0 °F 30% 29.68 in 10.0 mi West 11.5 mph 34.5 mph N/A   Mostly Cloudy
2:51 PM 28.0 °F 20.0 °F -0.0 °F 30% 29.70 in 10.0 mi West 8.1 mph 25.3 mph N/A   Mostly Cloudy
3:51 PM 26.1 °F 17.6 °F 1.0 °F 34% 29.72 in 10.0 mi West 8.1 mph 17.3 mph N/A   Clear
4:51 PM 26.1 °F 18.4 °F -2.0 °F 30% 29.72 in 10.0 mi Variable 6.9 mph 21.9 mph N/A   Partly Cloudy
5:51 PM 24.1 °F 16.0 °F -2.0 °F 32% 29.75 in 10.0 mi West 6.9 mph 16.1 mph N/A   Clear
6:51 PM 23.0 °F 18.4 °F -2.0 °F 34% 29.78 in 10.0 mi Variable 3.5 mph 17.3 mph N/A   Clear
7:51 PM 21.9 °F 11.0 °F -4.0 °F 32% 29.81 in 10.0 mi WNW 10.4 mph 23.0 mph N/A   Clear
8:51 PM 21.0 °F 10.6 °F -4.0 °F 33% 29.83 in 10.0 mi West 9.2 mph 19.6 mph N/A   Clear
10:51 PM 19.0 °F 12.3 °F -2.9 °F 38% 29.86 in 10.0 mi Variable 4.6 mph - N/A   Clear
11:51 PM 18.0 °F 9.8 °F -2.0 °F 41% 29.87 in 10.0 mi West 5.8 mph - N/A   Clear